[Date Prev][Date Next][Thread Prev][Thread Next] - [Date Index][Thread Index][Author Index]
2 Line ISS Keps 2-25
- Subject: [sarex] 2 Line ISS Keps 2-25
- From: "Dave Larsen PhD" <doc@xxxxxxxxxxx>
- Date: Mon, 25 Feb 2002 03:42:29 -0800
ISS
1 25544U 98067A 02056.13888889 .00051854 00000-0 60498-3 0 1160
2 25544 51.6374 256.0213 0010981 114.4394 31.7381 15.61044886186553
----
Via the sarex mailing list at AMSAT.ORG courtesy of AMSAT-NA.
To unsubscribe, send "unsubscribe sarex" to Majordomo@amsat.org
AMSAT Home